Weather History for Sioux City, IA

Change the Weather History Date:

Monday, May 27, 2013

  Actual Average Record
Temperature  
Mean Temperature 66 °F 65 °F  
Max Temperature 75 °F 76 °F 92 °F (1895)
Min Temperature 57 °F 53 °F 34 °F (1992)
Degree Days  
Heating Degree Days 0 3  
Month to date heating degree days 224 170  
Since 1 July heating degree days 7052 6822  
Cooling Degree Days 1 3  
Month to date cooling degree days 40 42  
Year to date cooling degree days 41 53  
Growing Degree Days 15 (Base 50)    
Moisture  
Dew Point 57 °F    
Average Humidity 77    
Maximum Humidity 93    
Minimum Humidity 61    
Precipitation  
Precipitation 1.02 in 0.12 in 1.59 in (1995)
Month to date precipitation 4.44 3.22  
Year to date precipitation 12.49 9.46  
Snow  
Snow 0.00 in 0.00 in 0.00 in ()
Month to date snowfall 1.4 0.2  
Since 1 July snowfall 45.1 35.0  
Snow Depth 0.00 in    
Sea Level Pressure  
Sea Level Pressure 29.80 in    
Wind  
Wind Speed 9 mph (East)    
Max Wind Speed 31 mph    
Max Gust Speed 40 mph    
Visibility 9 miles    
Events Rain , Thunderstorm    
T = Trace of Precipitation, MM = Missing Value Source: NWS Daily Summary

Daily Weather History Graph

Daily Weather History Graph

Search for Another Location

Airport:

Trip Planner

Search our weather history database for the weather conditions in past years. The results will help you decide how hot, cold, wet, or windy it might be!

Date:

Astronomy

May. 27, 2013 Rise Set
Actual Time 5:53 AM CDT 8:52 PM CDT
Civil Twilight 5:20 AM CDT 9:25 PM CDT
Nautical Twilight 4:37 AM CDT 10:08 PM CDT
Astronomical Twilight 3:47 AM CDT 10:58 PM CDT
Moon 11:30 PM CDT (5/27) 8:33 AM CDT (5/27)
Length of Visible Light 16h 05m
Length of Day
14h 58m
Waning Gibbous, 91% of the Moon is Illuminated
May 27
Waning Gibbous
May 31
Last Quarter
Jun 8
New
Jun 16
First Quarter
Jun 23
Full

Hourly Weather History & Observations

Time (CDT) Temp. Dew Point Humidity Pressure Visibility Wind Dir Wind Speed Gust Speed Precip Events Conditions
12:23 AM 57.2 °F 55.4 °F 94% 29.85 in 10.0 mi ESE 20.7 mph 29.9 mph N/A Thunderstorm Overcast
12:38 AM 57.2 °F 55.4 °F 94% 29.82 in 10.0 mi ESE 24.2 mph 34.5 mph N/A   Overcast
12:52 AM 59.0 °F 55.0 °F 87% 29.83 in 10.0 mi ESE 21.9 mph 29.9 mph N/A   Overcast
1:16 AM 59.0 °F 55.4 °F 88% 29.82 in 10.0 mi ESE 21.9 mph 28.8 mph 0.00 in Rain Light Rain
1:27 AM 59.0 °F 55.4 °F 88% 29.83 in 10.0 mi ESE 25.3 mph 31.1 mph 0.00 in Rain , Thunderstorm Light Thunderstorms and Rain
1:42 AM 57.2 °F 55.4 °F 94% 29.95 in 2.5 mi SSW 23.0 mph 40.3 mph 0.00 in Rain , Thunderstorm Light Thunderstorms and Rain
1:50 AM 57.2 °F 55.4 °F 94% 29.89 in 1.0 mi SSE 12.7 mph 33.4 mph 0.40 in Rain , Thunderstorm Heavy Thunderstorms and Rain
1:52 AM 57.0 °F 55.9 °F 96% 29.88 in 1.0 mi SSE 13.8 mph 24.2 mph 0.51 in Rain , Thunderstorm Heavy Thunderstorms and Rain
2:00 AM 57.2 °F 55.4 °F 94% 29.87 in 3.0 mi SSE 8.1 mph - 0.12 in Rain , Thunderstorm Thunderstorms and Rain
2:08 AM 57.2 °F 55.4 °F 94% 29.88 in 5.0 mi SSE 6.9 mph - 0.15 in Rain , Thunderstorm Rain
2:31 AM 57.2 °F 57.2 °F 100% 29.88 in 5.0 mi SW 9.2 mph - 0.23 in Rain , Thunderstorm Rain
2:52 AM 57.9 °F 57.0 °F 97% 29.90 in 3.0 mi SSW 3.5 mph - 0.34 in Rain Heavy Rain
3:06 AM 57.2 °F 57.2 °F 100% 29.91 in 5.0 mi East 6.9 mph - 0.06 in Rain Rain
3:17 AM 57.2 °F 57.2 °F 100% 29.88 in 5.0 mi NE 10.4 mph - 0.09 in Rain , Thunderstorm Rain
3:31 AM 57.2 °F 57.2 °F 100% 29.87 in 6.0 mi NE 10.4 mph - 0.12 in Rain , Thunderstorm Thunderstorms and Rain
3:49 AM 57.2 °F 55.4 °F 94% 29.77 in 9.0 mi NNE 23.0 mph 31.1 mph 0.16 in Rain , Thunderstorm Light Rain
3:52 AM 57.9 °F 55.9 °F 93% 29.76 in 9.0 mi NNE 23.0 mph 31.1 mph 0.16 in Rain Light Rain
4:01 AM 57.2 °F 55.4 °F 94% 29.83 in 10.0 mi North 9.2 mph 28.8 mph 0.01 in Rain Light Rain
4:52 AM 57.9 °F 55.9 °F 93% 29.78 in 10.0 mi East 11.5 mph 26.5 mph 0.01 in   Clear
5:04 AM 57.2 °F 57.2 °F 100% 29.83 in 10.0 mi SE 5.8 mph - N/A   Scattered Clouds
5:15 AM 57.2 °F 55.4 °F 94% 29.82 in 10.0 mi ENE 4.6 mph - N/A   Mostly Cloudy
5:48 AM 57.2 °F 55.4 °F 94% 29.82 in 10.0 mi NE 9.2 mph - N/A   Overcast
5:52 AM 57.9 °F 55.9 °F 93% 29.81 in 10.0 mi NE 8.1 mph - N/A   Mostly Cloudy
6:06 AM 59.0 °F 55.4 °F 88% 29.80 in 10.0 mi NE 10.4 mph - N/A   Scattered Clouds
6:52 AM 57.0 °F 55.0 °F 93% 29.79 in 10.0 mi SSE 6.9 mph - N/A   Clear
7:52 AM 57.0 °F 55.9 °F 96% 29.83 in 10.0 mi SW 8.1 mph - N/A   Clear
8:52 AM 59.0 °F 57.0 °F 93% 29.85 in 10.0 mi SSE 3.5 mph - N/A   Scattered Clouds
9:52 AM 62.1 °F 57.9 °F 86% 29.78 in 10.0 mi East 11.5 mph - N/A   Clear
10:20 AM 62.6 °F 57.2 °F 82% 29.76 in 10.0 mi ENE 16.1 mph - N/A   Mostly Cloudy
10:52 AM 64.9 °F 59.0 °F 81% 29.74 in 10.0 mi NE 16.1 mph 26.5 mph N/A   Mostly Cloudy
10:59 AM 64.4 °F 57.2 °F 77% 29.74 in 10.0 mi ENE 16.1 mph 26.5 mph N/A   Scattered Clouds
11:32 AM 64.4 °F 57.2 °F 77% 29.82 in 10.0 mi ESE 5.8 mph - N/A   Overcast
11:52 AM 66.0 °F 59.0 °F 78% 29.82 in 10.0 mi SE 5.8 mph - N/A   Overcast
12:52 PM 66.0 °F 57.9 °F 75% 29.81 in 10.0 mi SE 3.5 mph - N/A   Overcast
1:05 PM 66.2 °F 59.0 °F 78% 29.82 in 10.0 mi East 4.6 mph - N/A   Overcast
1:15 PM 68.0 °F 57.2 °F 68% 29.81 in 10.0 mi East 4.6 mph - N/A   Overcast
1:36 PM 69.8 °F 59.0 °F 68% 29.81 in 10.0 mi Calm Calm - N/A   Overcast
1:52 PM 70.0 °F 60.1 °F 71% 29.81 in 10.0 mi Calm Calm - N/A   Overcast
2:52 PM 71.1 °F 59.0 °F 66% 29.77 in 10.0 mi Calm Calm - N/A   Clear
3:52 PM 73.9 °F 61.0 °F 64% 29.75 in 10.0 mi NNE 9.2 mph - N/A   Clear
4:52 PM 73.9 °F 59.0 °F 59% 29.73 in 10.0 mi North 5.8 mph - N/A   Partly Cloudy
5:52 PM 72.0 °F 60.1 °F 66% 29.73 in 10.0 mi ENE 9.2 mph - N/A   Mostly Cloudy
6:52 PM 70.0 °F 60.1 °F 71% 29.71 in 10.0 mi NE 12.7 mph - N/A   Clear
7:52 PM 66.0 °F 59.0 °F 78% 29.73 in 10.0 mi NE 15.0 mph - N/A   Clear
8:52 PM 63.0 °F 57.0 °F 81% 29.72 in 10.0 mi ENE 11.5 mph - N/A   Partly Cloudy
9:52 PM 61.0 °F 55.9 °F 83% 29.76 in 10.0 mi East 9.2 mph - N/A   Partly Cloudy
10:52 PM 60.1 °F 55.9 °F 86% 29.73 in 10.0 mi East 8.1 mph - N/A   Scattered Clouds
11:48 PM 60.8 °F 57.2 °F 88% 29.71 in 10.0 mi East 9.2 mph - N/A   Mostly Cloudy
11:52 PM 60.1 °F 57.0 °F 90% 29.70 in 10.0 mi ESE 9.2 mph - N/A   Mostly Cloudy